Regional Weather Roundup
Issued by NWS

Home | Current Version | Previous Version | Text Only | Print | Product List | Glossary Off
Versions: 1 2 3 4 5 6 7 8 9 10 11 12 13 14 15 16 17 18 19 20 21 22 23 24 25 26 27 28 29 30 31 32 33 34 35 36 37 38 39 40 41 42 43 44 45 46 47 48 49 50

000
ASUS45 KABQ 140401
RWRNM
NEW MEXICO REGIONAL WEATHER ROUNDUP
NATIONAL WEATHER SERVICE ALBUQUERQUE NM
900 PM MST SAT FEB 13 2016

NOTE: "FAIR" MEANS FEW OR NO CLOUDS BELOW 12,000 FEET AGL WITH NO
       SIGNIFICANT WEATHER OR OBSTRUCTIONS TO VISION.

      THIS PRODUCT IS RELEASED AS TWO VERSIONS.  ONE VERSION NEAR
      THE TOP OF THE HOUR CONTAINING PRELIMINARY DATA FROM ALBUQUERQUE
      AND OTHER STATIONS.  A FINAL VERSION WITH ADDITIONAL DATA IS
      ISSUED ABOUT 10 MINUTES AFTER THE HOUR.

NMZ501-503-504-510>518-140500-
NORTHWEST PLATEAU/NORTHCENTRAL MOUNTAINS

CITY           SKY/WX    TMP DP  RH WIND       PRES   REMARKS
FARMINGTON     FAIR      44  25  47 W7        30.17R
SANTA FE       FAIR      52  13  21 N16G22    30.12F
TAOS           FAIR      37  19  48 NW7       30.19R WCI  32

$$
NMZ402-403-502-505>509-140500-
WESTCENTRAL MOUNTAINS/SOUTHWEST MOUNTAINS

CITY           SKY/WX    TMP DP  RH WIND       PRES   REMARKS
GALLUP         FAIR      38  17  42 CALM      30.22R
SILVER CITY      N/A     46  10  23 NW13      30.16S

$$
NMZ407-409-411-412-140500-
SOUTHERN DESERTS

CITY           SKY/WX    TMP DP  RH WIND       PRES   REMARKS
DEMING         FAIR      50  12  21 NW8       30.09S
HOLLOMAN AFB   FAIR      54  10  17 SE8       30.05S
ALAMOGORDO     FAIR      52  14  22 SE10      30.07S
T OR C         FAIR      57   8  14 NW12      30.09R

$$
NMZ519>523-140500-
CENTRAL VALLEYS/CENTRAL HIGHLANDS

CITY           SKY/WX    TMP DP  RH WIND       PRES   REMARKS
ALBUQUERQUE    FAIR      55  17  22 NW12      30.12R
DOUBLE EAGLE   CLEAR     46  18  31 NW10      30.15
CLINES CORNERS FAIR      42  19  39 W15       30.12F
BELEN          FAIR      45   6  19 N10       30.12S
SOCORRO        NOT AVBL

$$
NMZ524>526-539-540-140500-
SOUTHCENTRAL MOUNTAINS

CITY           SKY/WX    TMP DP  RH WIND       PRES   REMARKS
RUIDOSO          N/A     43   7  22 SW9       30.18S

$$
NMZ527>531-140500-
NORTHEAST HIGHLANDS/NORTHEAST PLAINS

CITY           SKY/WX    TMP DP  RH WIND       PRES   REMARKS
LAS VEGAS      FAIR      52   6  15 W13G20    30.10F
RATON          FAIR      42  10  27 NE3       30.05R
CLAYTON        FAIR      53  12  19 NW10      29.94R

$$
NMZ532>537-140500-
EASTCENTRAL PLAINS

CITY           SKY/WX    TMP DP  RH WIND       PRES   REMARKS
TUCUMCARI      FAIR      49  15  25 CALM      29.95R
CANNON AFB     FAIR      49  18  29 W10       30.00S
CLOVIS AIRPORT FAIR      48  18  29 SW12      30.01S

$$
NMZ028-029-538-140500-
SOUTHEAST PLAINS

CITY           SKY/WX    TMP DP  RH WIND       PRES   REMARKS
ROSWELL        FAIR      50  15  24 W9        30.01S
ARTESIA        FAIR      54  18  24 W14       30.02R
CARLSBAD       FAIR      50  28  42 W12       30.00F
HOBBS          FAIR      50  28  43 S9        30.04S


$$



USA.gov is the U.S. government's official web portal to all federal, state and local government web resources and services.